Location: Piedmont
(45.8748°N, 74.1254°W)
Time: 13:39:57
(UTC+00:00)

N. Korean satellite - Pass Details

Date: 09 December 2021
Orbit: 446 x 491 km, 97.3° (Epoch: 18 January)

Event Time Altitude Azimuth Distance (km) Brightness Sun altitude
Rises 22:22:12 0° 208° (SSW) 2,510 11.0 -11.8°
Reaches altitude 10° 22:25:02 10° 234° (SW) 1,628 10.6 -12.2°
Maximum altitude 22:26:59 14° 268° (W) 1,381 10.0 -12.6°
Drops below altitude 10° 22:28:56 10° 303° (WNW) 1,621 9.7 -12.9°
Sets 22:31:45 0° 329° (NNW) 2,491 10.3 -13.3°
